Regional Weather Roundup
Issued by NWS

Home | Current Version | Previous Version | Graphics & Text | Print | Product List | Glossary On
Versions: 1 2 3 4 5 6 7 8 9 10 11 12 13 14 15 16 17 18 19 20 21 22 23 24 25 26 27 28 29 30 31 32 33 34 35 36 37 38 39 40 41 42 43 44 45 46 47 48 49 50
673
ASUS43 KMPX 271310
RWRMN
WEATHER ROUNDUP FOR MINNESOTA
NATIONAL WEATHER SERVICE TWIN CITIES/CHANHASSEN MN
800 AM CDT THU JUL 27 2017


NOTE: "FAIR" INDICATES FEW OR NO CLOUDS BELOW 12,000 FEET WITH NO
SIGNIFICANT WEATHER AND/OR OBSTRUCTIONS TO VISIBILITY. N/A MEANS
CURRENT SKY AND/OR WEATHER CONDITIONS ARE NOT AVAILABLE.

MNZ060>063-068>070-271400-
   Twin Cities Metro

CITY           SKY/WX    TMP DP  RH WIND       PRES   REMARKS
TWIN CITIES    SUNNY     71  61  70 CALM      30.07R
ST PAUL        SUNNY     70  63  78 VRB3      30.07R
CRYSTAL        SUNNY     69  58  67 N3        30.07R
BLAINE         SUNNY     70  61  73 N7        30.07S
LAKEVILLE      SUNNY     70  63  78 N5        30.07S
EDEN PRAIRIE   SUNNY     72  61  68 NE5       30.06R
SOUTH ST PAUL  SUNNY     71  61  71 NE3       30.06R
LAKE ELMO      FAIR      70  63  78 N3        30.08R
$$
MNZ001>005-007-008-013>017-022>024-027-028-271400-
   Northwest Minnesota

CITY           SKY/WX    TMP DP  RH WIND       PRES   REMARKS
BEMIDJI        SUNNY     62  60  91 CALM      30.13R
HALLOCK        SUNNY     61  61 100 CALM      30.12S
ROSEAU           N/A     63  57  82 CALM      30.13R
WARROAD        MOSUNNY   64  61  88 W3        30.13R
THIEF RVR FALL CLOUDY    66  61  84 CALM      30.14R
CROOKSTON      MOSUNNY   61  61 100 CALM      30.14
FOSSTON        SUNNY     63  61  94 CALM      30.14R
DETROIT LAKES  SUNNY     66  61  82 CALM      30.14S
MOORHEAD       SUNNY     63  59  88 CALM      30.14R
PARK RAPIDS    SUNNY     68  61  78 N5        30.12S
MAHNOMEN       FAIR      61  59  93 CALM      30.13S
$$
MNZ006-009>011-018-025>026-271400-
   North Central Minnesota

CITY           SKY/WX    TMP DP  RH WIND       PRES   REMARKS
BAUDETTE       SUNNY     64  62  93 CALM      30.10S
FLAG ISLAND    MOSUNNY   66  63  88 NW3       30.10R
INTL FALLS     SUNNY     64  60  87 CALM      30.10S
WASKISH        CLOUDY    64  63  94 CALM      30.11S
BIG FORK       SUNNY     61  61 100 CALM      30.11S
LONGVILLE      SUNNY     64  64 100 CALM      30.11S
GRAND RAPIDS   SUNNY     65  61  87 N3        30.12S
CRANE LAKE     SUNNY     57  57 100 CALM      30.11S
ORR            SUNNY     61  59  94 CALM      30.08S
COOK             N/A     61  57  88 CALM      30.11R
WALKER         FAIR      62  60  93 CALM      30.12S
$$
MNZ012-019>021-037-271400-
   Northeast Minnesota

CITY           SKY/WX    TMP DP  RH WIND       PRES   REMARKS
DULUTH         SUNNY     67  62  84 N5        30.09S
ELY            SUNNY     63  59  88 CALM      30.10S
HIBBING        SUNNY     61  60  97 CALM      30.10S
EVELETH        SUNNY     63  59  87 CALM      30.11S
DULUTH HARBOR  SUNNY     68  63  83 CALM      30.08R
TWO HARBORS    SUNNY     70  63  78 CALM      30.07R
SILVER BAY     SUNNY     70  63  78 CALM      30.07R
GRAND MARAIS     N/A     62  56  80 E8        30.08R
G MARAIS ARPRT SUNNY     66  54  63 NE7       30.12R
$$
MNZ029>031-032-039>041-046>048-054>057-064-271400-
   West Central Minnesota

CITY           SKY/WX    TMP DP  RH WIND       PRES   REMARKS
FERGUS FALLS   SUNNY     66  61  82 CALM      30.12S
WHEATON        SUNNY     64  61  88 W6        30.14R
MORRIS         SUNNY     66  63  88 N3        30.10S
ALEXANDRIA     SUNNY     70  62  76 NE3       30.13R
ELBOW LAKE     FAIR      67  64  89 E6        30.12S FOG
WADENA         SUNNY     64  61  88 N3        30.12R
GLENWOOD       SUNNY     66  63  88 N3        30.11F
APPLETON       SUNNY     66  63  88 CALM      30.10R
BENSON         SUNNY     66  63  88 CALM      30.11S
ORTONVILLE     SUNNY     66  63  88 MISG      30.12R
MADISON        SUNNY     66  66 100 NW5       30.11R
WILLMAR        FAIR      70  63  78 NE6       30.11S
$$
MNZ033>034-036-042>043-049>051-058-059-271400-
   Central Minnesota

CITY           SKY/WX    TMP DP  RH WIND       PRES   REMARKS
ST CLOUD       SUNNY     67  63  87 N5        30.10R
SAUK CENTRE    FAIR      66  61  85 CALM      30.11S
PAYNESVILLE    SUNNY     66  62  87 NE3       30.11S
AITKIN         SUNNY     61  59  94 CALM      30.09S
PINE RIVER     SUNNY     64  61  88 N5        30.14S
BRAINERD       SUNNY     66  63  90 CALM      30.11R
STAPLES        SUNNY     63  61  94 N3        30.12R
LONG PRAIRIE   FAIR      63  59  88 NW5       30.12R
LITTLE FALLS   SUNNY     63  61  94 CALM      30.10S
LITCHFIELD     SUNNY     70  64  83 NE3       30.10S
BUFFALO        SUNNY     68  60  74 N5        30.09S
MAPLE LAKE     SUNNY     68  64  86 N3        30.10R
HUTCHINSON     SUNNY     70  63  79 NE7       30.10R
$$
MNZ037-044-045-052-053-271400-
   East Central Minnesota

CITY           SKY/WX    TMP DP  RH WIND       PRES   REMARKS
PRINCETON      SUNNY     68  63  83 VRB3      30.09R
MORA           SUNNY     64  59  82 CALM      30.10S
CAMBRIDGE      SUNNY     70  59  68 N3        30.07R
RUSH CITY      SUNNY     66  61  84 CALM      30.08S
MOOSE LAKE     SUNNY     64  59  82 CALM      30.07S
HINCKLEY       FAIR      66  61  82 N5        30.08S
CLOQUET        SUNNY     64  59  82 N3        30.10R
MCGREGOR       SUNNY     63  61  94 CALM      30.10S
$$
MNZ071>073-080-081-089-090-097-098-271400-
   Southwest Minnesota

CITY           SKY/WX    TMP DP  RH WIND       PRES   REMARKS
MONTEVIDEO     SUNNY     70  64  83 CALM      30.11R
CANBY          SUNNY     66  63  89 CALM      30.13R
MARSHALL       SUNNY     65  62  90 MISG      30.12R
REDWOOD FALLS  SUNNY     67  60  78 VRB3      30.09R
OLIVIA         SUNNY     68  63  83 N3        30.09R
PIPESTONE      SUNNY     66  63  88 NE5       30.13R
WINDOM         SUNNY     66  63  88 N5        30.10S
WORTHINGTON    SUNNY     65  62  90 N6        30.13R
JACKSON        SUNNY     64  61  88 CALM      30.11R
TRACY          SUNNY     65  64  96 NW3       30.12R
SLAYTON        HVY RAIN  63  55  73 N5        30.13R
$$
MNZ065>067-074>077-082>085-091>093-271400-
   South Central Minnesota

CITY           SKY/WX    TMP DP  RH WIND       PRES   REMARKS
MANKATO        SUNNY     68  63  84 N5        30.08R
NEW ULM        SUNNY     68  61  77 NE6       30.09R
ST JAMES       SUNNY     66  64  94 CALM      30.09S
FAIRMONT       SUNNY     66  64  93 N5        30.09R
GLENCOE        SUNNY     68  65  90 N3        30.08S
FARIBAULT      SUNNY     68  64  88 N3        30.07S
OWATONNA       SUNNY     66  64  94 CALM      30.07S
WASECA         SUNNY     64  63  94 N6        30.09R
ALBERT LEA     SUNNY     70  64  83 N5        30.07R
$$
MNZ078>079-086>088-094>096-271400-
   Southeast Minnesota

CITY           SKY/WX    TMP DP  RH WIND       PRES   REMARKS
ROCHESTER      SUNNY     68  64  87 N7        30.07R
RED WING       SUNNY     68  63  83 W3        30.05R
STANTON        SUNNY     67  65  93 CALM      30.06R
DODGE CENTER   SUNNY     66  63  88 N3        30.07R
WINONA         FOG       63  63 100 CALM      30.05R VSB 1/2
AUSTIN         SUNNY     66  63  88 N5        30.06R
PRESTON        SUNNY     66  62  85 N3        30.07R
$$
ABBREVIATIONS USED IN REMARKS
   TC - TEMPERATURES IN CELSIUS
  WCI - WIND CHILL INDEX
   HX - HEAT INDEX
  VSB - VISIBILITY
$$




USA.gov is the U.S. government's official web portal to all federal, state and local government web resources and services.